Location: Newark
(18.0634°N, 63.0549°W)
Time: 03:22:57
(UTC+00:00)

ISS - Visible Passes

Search period start: 23 October 2019 00:00
Search period end: 02 November 2019 00:00
Orbit: 411 x 421 km, 51.6° (Epoch: 23 October)

Date Brightness Start Highest point End Pass type
(mag) Time Alt. Az. Time Alt. Az. Time Alt. Az.
23 Oct -3.2 08:36:08 56° ESE 08:36:08 56° ESE 08:39:18 10° NE visible
24 Oct -1.8 09:23:57 14° NW 09:24:12 14° NW 09:26:05 10° NNW visible
25 Oct -0.9 08:38:28 10° NNE 08:38:28 10° NNE 08:38:31 10° NNE visible
